TEMELIN Weather Reports


Display with metric or nautical units.
time (UTC)temp
F
wind
direction
speed
MPH
gust
MPH
rain 1hr
in
rain 24hr
in
rain mn
in
humidity
%
barometer
mb
20260902102120 72 290 7.0 0.0 0.00 0.00 0.00 46
20260902091818 68 230 2.0 0.0 0.00 0.00 0.00 60
20260902082030 64 220 2.0 0.0 0.00 0.00 0.00 67
20260902071918 63 210 2.0 0.0 0.00 0.00 0.00 72
20260902061819 57 210 2.0 0.0 0.00 0.00 0.00 76
20260902052003 54 240 5.0 0.0 0.00 0.00 0.00 87
20260902042121 57 180 2.0 0.0 0.00 0.00 0.00 76
20260902031817 57 240 5.0 0.0 0.00 0.00 0.00 76
20260902022030 57 300 2.0 0.0 0.00 0.00 0.00 76
20260902012029 55 250 5.0 0.0 0.00 0.00 0.00 82
20260902001819 57 220 7.0 0.0 0.00 0.00 0.00 71
20260901232010 57 230 5.0 0.0 0.00 0.00 0.00 71
20260901222121 59 240 5.0 0.0 0.00 0.00 0.00 67
20260901211819 61 210 7.0 0.0 0.00 0.00 0.00 63
20260901202022 63 300 7.0 0.0 0.00 0.00 0.00 59
20260901192023 64 320 7.0 0.0 0.00 0.00 0.00 55
20260901181818 66 320 5.0 0.0 0.00 0.00 0.00 48
20260901172031 70 280 7.0 0.0 0.00 0.00 0.00 43
20260901162121 72 280 12.0 0.0 0.00 0.00 0.00 37
20260901151817 72 290 12.0 0.0 0.00 0.00 0.00 40
20260901142029 73 300 12.0 22.0 0.00 0.00 0.00 40
20260901131920 72 290 9.0 0.0 0.00 0.00 0.00 43
20260901121818 72 280 12.0 0.0 0.00 0.00 0.00 46
20260901111919 68 270 14.0 0.0 0.00 0.00 0.00 49